User: anonymous   Login
Location: ??
(35.5052°N, 139.7262°E)
Time: 20:59:02
(UTC+00:00)
Language:

FENGYUN 1C DEB - Orbit

View from above orbital plane
View from above orbital plane
View from above satellite
View from above satellite

Ground track
Ground track

The orbit data is extracted from the following two-line orbital elements,

1 31902U 99025CLD 22023.80189462  .00000136  00000-0  71083-4 0  9990
2 31902  98.4578  45.2513 0186550 319.8847 218.0864 14.20338364446325
Epoch (UTC): 23 January 2022 19:14:43
Eccentricity: 0.0186550
inclination: 98.4578°
perigee height: 690 km
apogee height: 958 km
right ascension of ascending node: 45.2513°
argument of perigee: 319.8847°
revolutions per day: 14.20338364
mean anomaly at epoch: 218.0864°
orbit number at epoch: 44632

The dashed part of the orbit path shows where the satellite is in the earth's shadow,  

DLR